Weather History for Flora, IL

Change the Weather History Date:

Sunday, October 23, 2011

  Actual Average (KEVV) Record (KEVV)
Temperature  
Mean Temperature 58 °F 56 °F  
Max Temperature 73 °F 67 °F 88 °F (1963)
Min Temperature 42 °F 44 °F 26 °F (1952)
Degree Days  
Heating Degree Days 8 10  
Month to date heating degree days 167  
Since 1 July heating degree days 214  
Cooling Degree Days 0 0  
Month to date cooling degree days 28  
Year to date cooling degree days 1394  
Growing Degree Days 8 (Base 50)    
Moisture  
Dew Point 45 °F    
Average Humidity 68    
Maximum Humidity 93    
Minimum Humidity 33    
Precipitation  
Precipitation 0.00 in 0.11 in 2.45 in (1976)
Month to date precipitation 2.37  
Year to date precipitation 36.34  
Snow  
Snow 0.00 in 0.00 in 0.00 in (2002)
Month to date snowfall 0.1  
Since 1 July snowfall 0.1  
Since 1 September snowfall 0.1  
Snow Depth -    
Sea Level Pressure  
Sea Level Pressure 30.02 in    
Wind  
Wind Speed 3 mph (SSE)    
Max Wind Speed 13 mph    
Max Gust Speed 16 mph    
Visibility 10 miles    
Events Rain    
T = Trace of Precipitation, MM = Missing Value Source: NWS Daily Summary

Daily Weather History Graph

Daily Weather History Graph

Search for Another Location

Airport:

Trip Planner

Search our weather history database for the weather conditions in past years. The results will help you decide how hot, cold, wet, or windy it might be!

Date:

Astronomy

Oct. 23, 2011 Rise Set
Actual Time 7:10 AM CDT 6:04 PM CDT
Civil Twilight 6:43 AM CDT 6:31 PM CDT
Nautical Twilight 6:12 AM CDT 7:02 PM CDT
Astronomical Twilight 5:41 AM CDT 7:33 PM CDT
Moon 3:19 AM CDT (10/23) 3:53 PM CDT (10/23)
Length of Visible Light 11h 48m
Length of Day
10h 54m
Waning Crescent, 14% of the Moon is Illuminated
Oct 23
Waning Crescent
Oct 26
New
Nov 2
First Quarter
Nov 10
Full
Nov 18
Last Quarter

Hourly Weather History & Observations

Time (CDT) Temp. Windchill Dew Point Humidity Pressure Visibility Wind Dir Wind Speed Gust Speed Precip Events Conditions
12:15 AM 44.6 °F - 41.0 °F 87% 30.03 in 10.0 mi Calm Calm - N/A   Clear
12:35 AM 46.4 °F - 41.0 °F 81% 30.03 in 10.0 mi Calm Calm - N/A   Clear
12:55 AM 46.4 °F 45.2 °F 41.0 °F 81% 30.02 in 10.0 mi SE 3.5 mph - N/A   Clear
1:15 AM 46.4 °F 45.2 °F 41.0 °F 81% 30.02 in 10.0 mi SSE 3.5 mph - N/A   Clear
1:35 AM 44.6 °F - 41.0 °F 87% 30.02 in 10.0 mi Calm Calm - N/A   Clear
1:55 AM 46.4 °F - 41.0 °F 81% 30.02 in 10.0 mi Calm Calm - N/A   Clear
2:15 AM 46.4 °F - 41.0 °F 81% 30.02 in 10.0 mi Calm Calm - N/A   Clear
2:35 AM 44.6 °F - 41.0 °F 87% 30.02 in 10.0 mi Calm Calm - N/A   Clear
2:55 AM 44.6 °F - 41.0 °F 87% 30.02 in 10.0 mi Calm Calm - N/A   Clear
3:15 AM 44.6 °F - 41.0 °F 87% 30.01 in 10.0 mi Calm Calm - N/A   Clear
3:35 AM 44.6 °F - 41.0 °F 87% 30.01 in 10.0 mi Calm Calm - N/A   Clear
3:55 AM 42.8 °F - 41.0 °F 93% 30.02 in 10.0 mi Calm Calm - N/A   Mostly Cloudy
4:15 AM 44.6 °F - 42.8 °F 93% 30.01 in 10.0 mi Calm Calm - N/A   Overcast
4:35 AM 46.4 °F - 42.8 °F 87% 30.01 in 10.0 mi Calm Calm - N/A   Overcast
4:55 AM 46.4 °F - 42.8 °F 87% 30.01 in 10.0 mi Calm Calm - N/A   Overcast
5:15 AM 46.4 °F - 42.8 °F 87% 30.02 in 10.0 mi Calm Calm - N/A   Mostly Cloudy
5:35 AM 48.2 °F - 44.6 °F 87% 30.02 in 10.0 mi Calm Calm - N/A   Light Drizzle
5:55 AM 48.2 °F - 44.6 °F 87% 30.03 in 10.0 mi Calm Calm - N/A   Overcast
6:15 AM 48.2 °F - 44.6 °F 87% 30.04 in 10.0 mi Calm Calm - N/A   Drizzle
6:35 AM 48.2 °F - 44.6 °F 87% 30.04 in 10.0 mi Calm Calm - N/A Rain Light Rain
6:55 AM 48.2 °F - 44.6 °F 87% 30.04 in 10.0 mi SE 3.5 mph - N/A   Overcast
7:15 AM 48.2 °F - 44.6 °F 87% 30.05 in 10.0 mi Calm Calm - N/A Rain Light Rain
7:35 AM 48.2 °F - 44.6 °F 87% 30.05 in 10.0 mi Calm Calm - N/A   Mostly Cloudy
7:55 AM 50.0 °F - 44.6 °F 82% 30.07 in 10.0 mi Calm Calm - N/A   Mostly Cloudy
8:15 AM 50.0 °F - 46.4 °F 87% 30.06 in 10.0 mi Calm Calm - N/A   Light Drizzle
8:35 AM 50.0 °F - 46.4 °F 87% 30.06 in 10.0 mi SE 3.5 mph - N/A   Scattered Clouds
8:55 AM 51.8 °F - 46.4 °F 82% 30.05 in 10.0 mi East 3.5 mph - N/A   Clear
9:15 AM 53.6 °F - 46.4 °F 77% 30.05 in 10.0 mi SSE 4.6 mph - N/A   Clear
9:35 AM 53.6 °F - 48.2 °F 82% 30.05 in 10.0 mi SE 5.8 mph - N/A   Clear
9:55 AM 53.6 °F - 48.2 °F 82% 30.05 in 10.0 mi SE 3.5 mph - N/A   Clear
10:15 AM 55.4 °F - 48.2 °F 77% 30.05 in 10.0 mi ESE 4.6 mph - N/A   Clear
10:35 AM 57.2 °F - 48.2 °F 72% 30.05 in 10.0 mi Calm Calm - N/A   Clear
10:55 AM 60.8 °F - 50.0 °F 68% 30.05 in 10.0 mi SSW 5.8 mph - N/A   Scattered Clouds
11:15 AM 60.8 °F - 50.0 °F 68% 30.06 in 10.0 mi South 8.1 mph - N/A   Scattered Clouds
11:35 AM 62.6 °F - 48.2 °F 59% 30.05 in 10.0 mi South 11.5 mph - N/A   Clear
11:55 AM 64.4 °F - 46.4 °F 52% 30.05 in 10.0 mi South 6.9 mph - N/A   Clear
12:15 PM 68.0 °F - 44.6 °F 43% 30.04 in 10.0 mi SSE 10.4 mph - N/A   Clear
12:35 PM 68.0 °F - 44.6 °F 43% 30.03 in 10.0 mi SE 9.2 mph - N/A   Clear
12:55 PM 69.8 °F - 42.8 °F 38% 30.01 in 10.0 mi SE 8.1 mph - N/A   Clear
1:15 PM 71.6 °F - 41.0 °F 33% 30.01 in 10.0 mi SE 6.9 mph - N/A   Clear
1:35 PM 71.6 °F - 41.0 °F 33% 30.00 in 10.0 mi SE 4.6 mph - N/A   Clear
1:55 PM 71.6 °F - 42.8 °F 35% 30.00 in 10.0 mi South 8.1 mph - N/A   Clear
2:15 PM 71.6 °F - 44.6 °F 38% 29.99 in 10.0 mi SSE 8.1 mph - N/A   Clear
2:35 PM 71.6 °F - 44.6 °F 38% 29.99 in 10.0 mi SSE 8.1 mph - N/A   Clear
2:55 PM 71.6 °F - 44.6 °F 38% 29.98 in 10.0 mi South 4.6 mph - N/A   Clear
3:15 PM 71.6 °F - 46.4 °F 41% 29.98 in 10.0 mi SSE 6.9 mph - N/A   Clear
3:35 PM 71.6 °F - 46.4 °F 41% 29.97 in 10.0 mi South 12.7 mph - N/A   Clear
3:55 PM 73.4 °F - 46.4 °F 38% 29.97 in 10.0 mi South 9.2 mph - N/A   Clear
4:15 PM 71.6 °F - 46.4 °F 41% 29.97 in 10.0 mi South 11.5 mph 16.1 mph N/A   Clear
4:35 PM 71.6 °F - 48.2 °F 43% 29.97 in 10.0 mi South 10.4 mph - N/A   Scattered Clouds
4:55 PM 69.8 °F - 50.0 °F 49% 29.97 in 10.0 mi South 8.1 mph - N/A   Scattered Clouds
5:15 PM 69.8 °F - 48.2 °F 46% 29.98 in 10.0 mi South 9.2 mph - N/A   Scattered Clouds
5:35 PM 68.0 °F - 48.2 °F 49% 29.98 in 10.0 mi South 8.1 mph - N/A   Scattered Clouds
5:55 PM 68.0 °F - 48.2 °F 49% 29.98 in 10.0 mi South 8.1 mph - N/A   Scattered Clouds
6:15 PM 64.4 °F - 48.2 °F 56% 29.99 in 10.0 mi SSE 8.1 mph - N/A   Clear
6:35 PM 62.6 °F - 48.2 °F 59% 30.00 in 10.0 mi South 6.9 mph - N/A   Clear
6:55 PM 60.8 °F - 48.2 °F 63% 30.00 in 10.0 mi South 8.1 mph - N/A   Clear
7:15 PM 60.8 °F - 46.4 °F 59% 30.00 in 10.0 mi South 8.1 mph - N/A   Clear
7:35 PM 60.8 °F - 46.4 °F 59% 30.01 in 10.0 mi South 8.1 mph - N/A   Clear
7:55 PM 59.0 °F - 46.4 °F 63% 30.01 in 10.0 mi SSE 8.1 mph - N/A   Clear
8:15 PM 59.0 °F - 46.4 °F 63% 30.01 in 10.0 mi SSE 8.1 mph - N/A   Clear
8:35 PM 57.2 °F - 46.4 °F 67% 30.01 in 10.0 mi South 8.1 mph - N/A   Clear
8:55 PM 57.2 °F - 46.4 °F 67% 30.02 in 10.0 mi South 9.2 mph - N/A   Clear
9:15 PM 57.2 °F - 46.4 °F 67% 30.02 in 10.0 mi South 9.2 mph - N/A   Clear
10:15 PM 55.4 °F - 46.4 °F 72% 30.03 in 10.0 mi South 8.1 mph - N/A   Clear
10:35 PM 57.2 °F - 46.4 °F 67% 30.03 in 10.0 mi South 10.4 mph - N/A   Clear
10:55 PM 57.2 °F - 46.4 °F 67% 30.02 in 10.0 mi South 8.1 mph - N/A   Clear
11:15 PM 55.4 °F - 46.4 °F 72% 30.02 in 10.0 mi South 9.2 mph - N/A   Clear
11:35 PM 55.4 °F - 46.4 °F 72% 30.02 in 10.0 mi South 9.2 mph - N/A   Clear
11:55 PM 55.4 °F - 46.4 °F 72% 30.02 in 10.0 mi South 10.4 mph - N/A   Clear